When you browse on this site, cookies collect data to enhance your experience and personalize the content and advertising you see.
Visit our Privacy Policy to learn more. By continuing to use the site, you agree to this use of cookies and data.
  • In Spain
  • List of Countries
  • For 7 days
  • Water Temperature
  • Satellite Maps
  • Weather Map
  • Weather Widgets
  • user-avatar
    Login

    Hourly Weather Kruzhyky

    Today, 21 March, Thursday

    Time Temperature Precipitation Wind Pressure Humidity
    00:00 +3°C° 0 mm 1 mps 749 mmHg 65%
    01:00 +2°C° 0 mm 2 mps 749 mmHg 66%
    02:00 +2°C° 0 mm 2 mps 749 mmHg 67%
    03:00 +2°C° 0 mm 2 mps 749 mmHg 68%
    04:00 +1°C° 0 mm 2 mps 749 mmHg 68%
    05:00 +1°C° 0 mm 2 mps 749 mmHg 69%
    06:00 +2°C° 0 mm 2 mps 749 mmHg 67%
    07:00 +2°C° 0 mm 2 mps 749 mmHg 65%
    08:00 +3°C° 0 mm 2 mps 750 mmHg 64%
    09:00 +4°C° 0 mm 3 mps 749 mmHg 59%
    10:00 +6°C° 0 mm 4 mps 749 mmHg 55%
    11:00 +7°C° 0 mm 4 mps 749 mmHg 51%
    12:00 +8°C° 0 mm 4 mps 749 mmHg 52%
    13:00 +9°C° 0 mm 5 mps 749 mmHg 53%
    14:00 +10°C° 0 mm 5 mps 748 mmHg 55%
    15:00 +10°C° 0 mm 5 mps 748 mmHg 58%
    16:00 +11°C° 0 mm 4 mps 748 mmHg 61%
    17:00 +10°C° 0 mm 4 mps 747 mmHg 64%
    18:00 +10°C° 0 mm 4 mps 748 mmHg 70%
    19:00 +9°C° 0 mm 3 mps 748 mmHg 75%
    20:00 +8°C° 0 mm 2 mps 748 mmHg 80%
    21:00 +8°C° 0 mm 2 mps 748 mmHg 82%
    22:00 +7°C° 0 mm 2 mps 748 mmHg 83%
    23:00 +7°C° 0 mm 2 mps 748 mmHg 85%

    Tomorrow, 22 March, Friday

    Time Temperature Precipitation Wind Pressure Humidity
    00:00 +7°C° 0 mm 2 mps 748 mmHg 85%
    01:00 +7°C° 0 mm 2 mps 748 mmHg 86%
    02:00 +6°C° 0 mm 2 mps 748 mmHg 86%
    03:00 +6°C° 0 mm 2 mps 748 mmHg 88%
    04:00 +5°C° 0 mm 2 mps 748 mmHg 89%
    05:00 +4°C° 0 mm 3 mps 747 mmHg 91%
    06:00 +5°C° 0 mm 3 mps 748 mmHg 90%
    07:00 +5°C° 0 mm 3 mps 748 mmHg 88%
    08:00 +7°C° 0 mm 3 mps 748 mmHg 87%
    09:00 +8°C° 0.1 mm 3 mps 748 mmHg 87%
    10:00 +8°C° 0.1 mm 3 mps 748 mmHg 87%
    11:00 +8°C° 0.1 mm 3 mps 748 mmHg 87%
    12:00 +9°C° 0 mm 3 mps 747 mmHg 86%
    13:00 +9°C° 0 mm 3 mps 747 mmHg 86%
    14:00 +10°C° 0 mm 3 mps 747 mmHg 85%
    15:00 +10°C° 0 mm 3 mps 747 mmHg 86%
    16:00 +10°C° 0 mm 2 mps 747 mmHg 87%
    17:00 +11°C° 0 mm 1 mps 747 mmHg 87%
    18:00 +10°C° 0 mm 1 mps 747 mmHg 89%
    19:00 +10°C° 0 mm 1 mps 747 mmHg 91%
    20:00 +9°C° 0 mm 1 mps 747 mmHg 93%
    21:00 +9°C° 0 mm 1 mps 747 mmHg 93%
    22:00 +9°C° 0 mm 1 mps 747 mmHg 93%
    23:00 +9°C° 0 mm 1 mps 747 mmHg 93%

    Day after tomorrow, 23 March, Saturday

    Time Temperature Precipitation Wind Pressure Humidity
    00:00 +9°C° 0 mm 1 mps 747 mmHg 93%
    01:00 +9°C° 0 mm 1 mps 747 mmHg 92%
    02:00 +9°C° 0 mm 1 mps 747 mmHg 92%
    03:00 +9°C° 0 mm 1 mps 746 mmHg 92%
    04:00 +8°C° 0 mm 1 mps 746 mmHg 91%
    05:00 +8°C° 0 mm 1 mps 746 mmHg 91%
    06:00 +8°C° 0 mm 1 mps 746 mmHg 90%
    07:00 +8°C° 0 mm 1 mps 746 mmHg 89%
    08:00 +8°C° 0 mm 2 mps 746 mmHg 88%
    09:00 +9°C° 0 mm 2 mps 745 mmHg 81%
    10:00 +12°C° 0 mm 2 mps 745 mmHg 74%
    11:00 +13°C° 0 mm 2 mps 745 mmHg 68%
    12:00 +14°C° 0 mm 2 mps 745 mmHg 65%
    13:00 +14°C° 0 mm 2 mps 745 mmHg 63%
    14:00 +15°C° 0 mm 2 mps 744 mmHg 61%
    15:00 +15°C° 0 mm 2 mps 744 mmHg 62%
    16:00 +15°C° 0 mm 2 mps 744 mmHg 63%
    17:00 +15°C° 0 mm 1 mps 743 mmHg 64%
    18:00 +13°C° 0 mm 1 mps 743 mmHg 69%
    19:00 +12°C° 0 mm 1 mps 744 mmHg 74%
    20:00 +11°C° 0 mm 1 mps 744 mmHg 79%
    21:00 +11°C° 0 mm 1 mps 744 mmHg 81%
    22:00 +10°C° 0 mm 1 mps 744 mmHg 83%
    23:00 +9°C° 0 mm 2 mps 744 mmHg 85%

    24 March, Sunday

    Time Temperature Precipitation Wind Pressure Humidity
    00:00 +9°C° 0 mm 2 mps 744 mmHg 85%
    01:00 +8°C° 0 mm 2 mps 743 mmHg 85%
    02:00 +8°C° 0 mm 2 mps 743 mmHg 86%
    03:00 +8°C° 0 mm 2 mps 743 mmHg 85%
    04:00 +8°C° 0 mm 2 mps 743 mmHg 84%
    05:00 +9°C° 0 mm 2 mps 743 mmHg 84%
    06:00 +9°C° 0 mm 2 mps 743 mmHg 84%
    07:00 +9°C° 0 mm 2 mps 743 mmHg 84%
    08:00 +9°C° 0 mm 2 mps 744 mmHg 84%
    09:00 +10°C° 0 mm 2 mps 744 mmHg 83%
    10:00 +10°C° 0 mm 2 mps 744 mmHg 82%
    11:00 +12°C° 0 mm 2 mps 744 mmHg 80%
    12:00 +12°C° 0 mm 2 mps 743 mmHg 78%
    13:00 +13°C° 0 mm 2 mps 743 mmHg 75%
    14:00 +13°C° 0 mm 2 mps 743 mmHg 73%
    15:00 +13°C° 0 mm 2 mps 742 mmHg 72%
    16:00 +13°C° 0 mm 1 mps 742 mmHg 71%
    17:00 +13°C° 0 mm 1 mps 741 mmHg 70%
    18:00 +12°C° 0 mm 1 mps 741 mmHg 73%
    19:00 +12°C° 0 mm 2 mps 741 mmHg 76%
    20:00 +10°C° 0 mm 2 mps 741 mmHg 80%
    21:00 +9°C° 0.5 mm 2 mps 741 mmHg 81%
    22:00 +9°C° 0.5 mm 2 mps 740 mmHg 83%
    23:00 +9°C° 0.5 mm 3 mps 740 mmHg 84%

    25 March, Monday

    Time Temperature Precipitation Wind Pressure Humidity
    00:00 +8°C° 1.4 mm 3 mps 739 mmHg 88%
    01:00 +8°C° 1.4 mm 3 mps 739 mmHg 91%
    02:00 +8°C° 1.4 mm 3 mps 738 mmHg 94%
    03:00 +7°C° 0.4 mm 2 mps 738 mmHg 95%
    04:00 +7°C° 0.4 mm 2 mps 737 mmHg 95%
    05:00 +8°C° 0.4 mm 1 mps 737 mmHg 96%
    06:00 +8°C° 1.1 mm 1 mps 736 mmHg 95%
    07:00 +7°C° 1.1 mm 2 mps 736 mmHg 95%
    08:00 +8°C° 1.1 mm 2 mps 736 mmHg 95%
    09:00 +8°C° 0.3 mm 3 mps 736 mmHg 88%
    10:00 +8°C° 0.3 mm 4 mps 736 mmHg 82%
    11:00 +8°C° 0.3 mm 5 mps 736 mmHg 75%
    12:00 +9°C° 0.1 mm 5 mps 736 mmHg 70%
    13:00 +9°C° 0.1 mm 5 mps 735 mmHg 65%
    14:00 +10°C° 0.1 mm 6 mps 735 mmHg 60%
    15:00 +9°C° 0 mm 6 mps 735 mmHg 58%
    16:00 +9°C° 0 mm 6 mps 734 mmHg 57%
    17:00 +9°C° 0 mm 6 mps 734 mmHg 55%
    18:00 +8°C° 0 mm 6 mps 734 mmHg 57%
    19:00 +7°C° 0 mm 5 mps 734 mmHg 59%
    20:00 +5°C° 0 mm 5 mps 734 mmHg 61%
    21:00 +5°C° 0 mm 5 mps 735 mmHg 64%
    22:00 +3°C° 0 mm 5 mps 735 mmHg 67%
    23:00 +2°C° 0 mm 5 mps 735 mmHg 71%

    26 March, Tuesday

    Time Temperature Precipitation Wind Pressure Humidity
    00:00 +2°C° 0 mm 5 mps 735 mmHg 71%
    01:00 +1°C° 0 mm 4 mps 735 mmHg 71%
    02:00 0°C° 0 mm 4 mps 735 mmHg 72%
    03:00 0°C° 0 mm 4 mps 735 mmHg 71%
    04:00 0°C° 0 mm 5 mps 734 mmHg 71%
    05:00 -1°C° 0 mm 5 mps 734 mmHg 71%
    06:00 -2°C° 0.1 mm 6 mps 734 mmHg 69%
    07:00 -2°C° 0.1 mm 7 mps 734 mmHg 66%
    08:00 -2°C° 0.1 mm 8 mps 734 mmHg 64%
    09:00 -2°C° 0.2 mm 8 mps 734 mmHg 62%
    10:00 -1°C° 0.2 mm 9 mps 734 mmHg 59%
    11:00 -1°C° 0.2 mm 9 mps 734 mmHg 56%
    12:00 -1°C° 0.3 mm 9 mps 734 mmHg 53%
    13:00 -1°C° 0.3 mm 9 mps 734 mmHg 50%
    14:00 -1°C° 0.3 mm 8 mps 734 mmHg 48%
    15:00 -1°C° 0.1 mm 8 mps 735 mmHg 47%
    16:00 -1°C° 0.1 mm 8 mps 735 mmHg 47%
    17:00 -2°C° 0.1 mm 8 mps 735 mmHg 47%
    18:00 -3°C° 0 mm 7 mps 736 mmHg 53%
    19:00 -4°C° 0 mm 6 mps 737 mmHg 58%
    20:00 -5°C° 0 mm 5 mps 737 mmHg 64%
    21:00 -5°C° 0 mm 5 mps 738 mmHg 66%
    22:00 -5°C° 0 mm 6 mps 738 mmHg 68%
    23:00 -6°C° 0 mm 7 mps 738 mmHg 70%
    Show more